Location: Bruderhein
(53.8035°N, 112.9265°W)
Time: 19:25:43
(UTC+00:00)

deb Delta 139 - Pass Details

Date: 04 December 2023
Orbit: 731 x 794 km, 98.6° (Epoch: 04 March)

Event Time Altitude Azimuth Distance (km) Brightness Sun altitude
Rises 12:58:02 0° 30° (NNE) 3,197 ? -21.2°
Reaches altitude 10° 13:01:58 10° 61° (ENE) 2,255 ? -20.7°
Maximum altitude 13:03:50 12° 83° (E) 2,112 ? -20.4°
Drops below altitude 10° 13:05:40 10° 106° (ESE) 2,240 ? -20.1°
Sets 13:09:32 0° 137° (SE) 3,150 ? -19.6°
